Weather History for Marco Island Airport, FL

Change the Weather History Date:

Tuesday, January 7, 2014

  Actual Average (KAPF) Record (KAPF)
Temperature  
Mean Temperature 52 °F 64 °F  
Max Temperature 57 °F 75 °F 88 °F (1947)
Min Temperature 46 °F 54 °F 35 °F (1980)
Degree Days  
Heating Degree Days 14 4  
Month to date heating degree days 22  
Since 1 July heating degree days 100  
Cooling Degree Days 0 3  
Month to date cooling degree days 21  
Year to date cooling degree days 21  
Growing Degree Days 2 (Base 50)    
Moisture  
Dew Point 12 °F    
Average Humidity 26    
Maximum Humidity 71    
Minimum Humidity 11    
Precipitation  
Precipitation 0.00 in 0.06 in 1.76 in (1958)
Month to date precipitation 0.39  
Year to date precipitation 0.39  
Snow  
Snow 0.00 in - - ()
Month to date snowfall  
Since 1 July snowfall  
Snow Depth -    
Sea Level Pressure  
Sea Level Pressure 30.29 in    
Wind  
Wind Speed 15 mph (NNE)    
Max Wind Speed 22 mph    
Max Gust Speed 29 mph    
Visibility 10 miles    
Events      
T = Trace of Precipitation, MM = Missing Value Source: NWS Daily Summary

Daily Weather History Graph

Daily Weather History Graph

Search for Another Location

Airport:

Trip Planner

Search our weather history database for the weather conditions in past years. The results will help you decide how hot, cold, wet, or windy it might be!

Date:

Astronomy

Jan. 07, 2014 Rise Set
Actual Time 7:15 AM EST 5:51 PM EST
Civil Twilight 6:50 AM EST 6:16 PM EST
Nautical Twilight 6:21 AM EST 6:44 PM EST
Astronomical Twilight 5:53 AM EST 7:12 PM EST
Moon 11:46 AM EST (1/7) No Moon Set
Length of Visible Light 11h 26m
Length of Day
10h 36m
Waxing Crescent, 45% of the Moon is Illuminated
Jan 7
Waxing Crescent
Jan 7
First Quarter
Jan 15
Full
Jan 24
Last Quarter
Jan 30
New

Hourly Weather History & Observations

Time (EST) Temp. Windchill Dew Point Humidity Pressure Visibility Wind Dir Wind Speed Gust Speed Precip Events Conditions
12:15 AM 53.6 °F - -0.4 °F 11% 30.23 in 10.0 mi North 18.4 mph 24.2 mph N/A   Overcast
12:35 AM 51.8 °F - -0.4 °F 12% 30.24 in 10.0 mi North 18.4 mph 26.5 mph N/A   Overcast
12:55 AM 51.8 °F - -0.4 °F 12% 30.24 in 10.0 mi North 21.9 mph 27.6 mph N/A   Overcast
1:15 AM 51.8 °F - -2.2 °F 11% 30.24 in 10.0 mi North 19.6 mph 28.8 mph N/A   Overcast
1:35 AM 51.8 °F - -2.2 °F 11% 30.24 in 10.0 mi North 18.4 mph 27.6 mph N/A   Overcast
1:55 AM 51.8 °F - -2.2 °F 11% 30.23 in 10.0 mi NNE 11.5 mph 19.6 mph N/A   Overcast
2:15 AM 50.0 °F - -2.2 °F 12% 30.23 in 10.0 mi North 16.1 mph 20.7 mph N/A   Overcast
2:35 AM 50.0 °F - -2.2 °F 12% 30.23 in 10.0 mi North 10.4 mph - N/A   Overcast
2:55 AM 50.0 °F - -2.2 °F 12% 30.24 in 10.0 mi North 12.7 mph 19.6 mph N/A   Overcast
3:15 AM 48.2 °F - -2.2 °F 12% 30.24 in 10.0 mi North 17.3 mph 23.0 mph N/A   Overcast
3:35 AM 48.2 °F - -2.2 °F 12% 30.24 in 10.0 mi North 15.0 mph 24.2 mph N/A   Overcast
3:55 AM 48.2 °F - -2.2 °F 12% 30.25 in 10.0 mi North 13.8 mph 19.6 mph N/A   Overcast
4:15 AM 48.2 °F - -4.0 °F 11% 30.25 in 10.0 mi NNE 17.3 mph 21.9 mph N/A   Overcast
4:35 AM 48.2 °F - -4.0 °F 11% 30.26 in 10.0 mi North 16.1 mph 21.9 mph N/A   Overcast
4:55 AM 48.2 °F - -4.0 °F 11% 30.26 in 10.0 mi North 13.8 mph 19.6 mph N/A   Overcast
5:15 AM 48.2 °F - -4.0 °F 11% 30.26 in 10.0 mi NNE 13.8 mph 20.7 mph N/A   Overcast
5:35 AM 48.2 °F - -4.0 °F 11% 30.28 in 10.0 mi North 10.4 mph 19.6 mph N/A   Overcast
5:55 AM 46.4 °F 40.7 °F -5.8 °F 11% 30.29 in 10.0 mi NNE 12.7 mph 21.9 mph N/A   Overcast
6:15 AM 46.4 °F 40.4 °F -5.8 °F 11% 30.29 in 10.0 mi NNE 13.8 mph 19.6 mph N/A   Overcast
6:35 AM 46.4 °F 41.1 °F -5.8 °F 11% 30.30 in 10.0 mi NNE 11.5 mph 17.3 mph N/A   Overcast
6:55 AM 46.4 °F 40.4 °F -5.8 °F 11% 30.30 in 10.0 mi NNE 13.8 mph 19.6 mph N/A   Overcast
7:15 AM 46.4 °F 41.1 °F -5.8 °F 11% 30.30 in 10.0 mi NNE 11.5 mph - N/A   Overcast
7:35 AM 46.4 °F 40.4 °F -5.8 °F 11% 30.31 in 10.0 mi NE 13.8 mph 19.6 mph N/A   Overcast
7:55 AM 46.4 °F 40.4 °F -5.8 °F 11% 30.33 in 10.0 mi NNE 13.8 mph 20.7 mph N/A   Overcast
8:15 AM 46.4 °F 41.1 °F -5.8 °F 11% 30.32 in 10.0 mi NNE 11.5 mph 17.3 mph N/A   Overcast
8:35 AM 46.4 °F 39.2 °F -5.8 °F 11% 30.32 in 10.0 mi NNE 18.4 mph - N/A   Overcast
8:55 AM 46.4 °F 40.4 °F -5.8 °F 11% 30.34 in 10.0 mi North 13.8 mph 20.7 mph N/A   Overcast
9:15 AM 46.4 °F 40.4 °F -4.0 °F 12% 30.35 in 10.0 mi North 13.8 mph - N/A   Overcast
9:35 AM 48.2 °F - -4.0 °F 11% 30.35 in 10.0 mi NNE 17.3 mph 23.0 mph N/A   Overcast
9:55 AM 48.2 °F - -4.0 °F 11% 30.35 in 10.0 mi NNE 15.0 mph - N/A   Overcast
10:15 AM 48.2 °F - -2.2 °F 12% 30.34 in 10.0 mi North 16.1 mph 19.6 mph N/A   Scattered Clouds
10:35 AM 50.0 °F - -2.2 °F 12% 30.35 in 10.0 mi North 17.3 mph 23.0 mph N/A   Partly Cloudy
10:55 AM 51.8 °F - -2.2 °F 11% 30.35 in 10.0 mi North 17.3 mph - N/A   Clear
11:15 AM 51.8 °F - -0.4 °F 12% 30.34 in 10.0 mi NNE 17.3 mph 21.9 mph N/A   Clear
11:35 AM 51.8 °F - -0.4 °F 12% 30.34 in 10.0 mi NNE 13.8 mph 20.7 mph N/A   Clear
11:55 AM 51.8 °F - -0.4 °F 12% 30.33 in 10.0 mi NNE 15.0 mph - N/A   Clear
12:15 PM 53.6 °F - -0.4 °F 11% 30.31 in 10.0 mi NNE 12.7 mph 21.9 mph N/A   Clear
12:35 PM 53.6 °F - 1.4 °F 12% 30.30 in 10.0 mi NNE 17.3 mph 21.9 mph N/A   Clear
12:55 PM 53.6 °F - 1.4 °F 12% 30.29 in 10.0 mi NE 13.8 mph - N/A   Clear
1:15 PM 55.4 °F - 6.8 °F 14% 30.28 in 10.0 mi NNE 16.1 mph 24.2 mph N/A   Clear
1:35 PM 53.6 °F - 30.2 °F 41% 30.27 in 10.0 mi NNE 11.5 mph 21.9 mph N/A   Clear
1:55 PM 55.4 °F - 30.2 °F 38% 30.27 in 10.0 mi NE 15.0 mph - N/A   Clear
2:15 PM 55.4 °F - 30.2 °F 38% 30.26 in 10.0 mi North 15.0 mph 18.4 mph N/A   Clear
2:35 PM 57.2 °F - 28.4 °F 33% 30.26 in 10.0 mi North 11.5 mph - N/A   Clear
2:55 PM 55.4 °F - 28.4 °F 36% 30.26 in 10.0 mi NNE 11.5 mph 19.6 mph N/A   Clear
3:15 PM 57.2 °F - 30.2 °F 36% 30.27 in 10.0 mi NNE 16.1 mph 21.9 mph N/A   Clear
3:35 PM 57.2 °F - 30.2 °F 36% 30.27 in 10.0 mi NNE 16.1 mph 19.6 mph N/A   Partly Cloudy
3:55 PM 57.2 °F - 28.4 °F 33% 30.27 in 10.0 mi North 15.0 mph 20.7 mph N/A   Mostly Cloudy
4:15 PM 57.2 °F - 28.4 °F 33% 30.27 in 10.0 mi NNE 11.5 mph 18.4 mph N/A   Scattered Clouds
4:35 PM 55.4 °F - 26.6 °F 33% 30.27 in 10.0 mi NNE 12.7 mph - N/A   Mostly Cloudy
4:55 PM 55.4 °F - 26.6 °F 33% 30.28 in 10.0 mi NNE 17.3 mph 20.7 mph N/A   Overcast
5:15 PM 55.4 °F - 24.8 °F 31% 30.28 in 10.0 mi NNE 10.4 mph - N/A   Overcast
5:35 PM 53.6 °F - 23.0 °F 30% 30.29 in 10.0 mi North 12.7 mph 19.6 mph N/A   Overcast
5:55 PM 53.6 °F - 23.0 °F 30% 30.29 in 10.0 mi NNE 12.7 mph 18.4 mph N/A   Overcast
6:15 PM 53.6 °F - 24.8 °F 33% 30.29 in 10.0 mi NNE 11.5 mph 17.3 mph N/A   Overcast
6:35 PM 53.6 °F - 26.6 °F 35% 30.29 in 10.0 mi NNE 12.7 mph 19.6 mph N/A   Overcast
6:55 PM 51.8 °F - 26.6 °F 38% 30.30 in 10.0 mi North 10.4 mph - N/A   Overcast
7:15 PM 51.8 °F - 26.6 °F 38% 30.31 in 10.0 mi North 15.0 mph - N/A   Overcast
7:35 PM 51.8 °F - 26.6 °F 38% 30.31 in 10.0 mi NNE 15.0 mph 19.6 mph N/A   Overcast
7:55 PM 51.8 °F - 26.6 °F 38% 30.31 in 10.0 mi NNE 16.1 mph 23.0 mph N/A   Overcast
8:15 PM 51.8 °F - 28.4 °F 41% 30.31 in 10.0 mi NNE 16.1 mph 21.9 mph N/A   Overcast
8:35 PM 50.0 °F - 30.2 °F 47% 30.32 in 10.0 mi North 15.0 mph 18.4 mph N/A   Overcast
8:55 PM 50.0 °F - 33.8 °F 54% 30.32 in 10.0 mi NNE 17.3 mph 21.9 mph N/A   Overcast
9:15 PM 50.0 °F - 35.6 °F 58% 30.33 in 10.0 mi NNE 11.5 mph - N/A   Overcast
9:35 PM 48.2 °F - 35.6 °F 62% 30.33 in 10.0 mi NNE 12.7 mph 19.6 mph N/A   Overcast
9:55 PM 48.2 °F - 35.6 °F 62% 30.33 in 10.0 mi NNE 12.7 mph 21.9 mph N/A   Overcast
10:15 PM 48.2 °F - 35.6 °F 62% 30.33 in 10.0 mi NNE 17.3 mph 24.2 mph N/A   Overcast
10:35 PM 48.2 °F - 37.4 °F 66% 30.33 in 10.0 mi NNE 13.8 mph - N/A   Overcast
10:55 PM 48.2 °F - 37.4 °F 66% 30.32 in 10.0 mi NE 12.7 mph 20.7 mph N/A   Overcast
11:15 PM 48.2 °F - 37.4 °F 66% 30.32 in 10.0 mi NNE 12.7 mph - N/A   Overcast
11:35 PM 46.4 °F 40.1 °F 37.4 °F 71% 30.31 in 10.0 mi NNE 15.0 mph 19.6 mph N/A   Overcast
11:55 PM 46.4 °F 40.4 °F 37.4 °F 71% 30.30 in 10.0 mi NNE 13.8 mph 19.6 mph N/A   Overcast